RADUGA 18 [-]

Last updated on Aug. 12, 2020, 5:32 a.m. UTC

1 16497U 86007A   20224.63343300 -.00000235  00000-0  00000+0 0  9990
2 16497  13.8612 337.7931 0073450 145.2875 234.2805  0.98815492124810
UTC
Height (km)
Latitude
Longitude
Inclination
Orbital Period
UTC large
Height (km)
Speed (km/s)
/
Latitude / Longitude
Inclination (degrees)
Orbital Period (minutes)
Azimuth
Elevation
Range (km)
Doppler Factor
iOS Compass Heading
iOS Angle

Next 30 passes for location: Hong Kong

Rise time Rise Azimuth (degrees) Set time Set Azimuth (degrees) Duration Max altitude (degrees)

No matching passes for this satellites